Preview of NWS' New Version of Forecast
This preview is not operational and should not be used for support decisions.

Regional Weather Roundup (RWR)

Issued by National Weather Service (NWS)

                            
000
ASUS45 KABQ 200401
RWRNM 
NEW MEXICO REGIONAL WEATHER ROUNDUP
NATIONAL WEATHER SERVICE ALBUQUERQUE NM
1000 PM MDT WED JUN 19 2019

NOTE: "FAIR" MEANS FEW OR NO CLOUDS BELOW 12,000 FEET AGL WITH NO
       SIGNIFICANT WEATHER OR OBSTRUCTIONS TO VISION.

      THIS PRODUCT IS RELEASED AS TWO VERSIONS.  ONE VERSION NEAR
      THE TOP OF THE HOUR CONTAINING PRELIMINARY DATA FROM ALBUQUERQUE
      AND OTHER STATIONS.  A FINAL VERSION WITH ADDITIONAL DATA IS 
      ISSUED ABOUT 10 MINUTES AFTER THE HOUR.
 
NMZ501-503-504-510>518-200500-
NORTHWEST PLATEAU/NORTHCENTRAL MOUNTAINS
  
CITY           SKY/WX    TMP DP  RH WIND       PRES   REMARKS
FARMINGTON     FAIR      76  26  15 SW3       29.98R                  
LOS ALAMOS       N/A     71  28  20 W5        30.15R                  
SANTA FE       FAIR      66  29  24 N10       30.06R                  
TAOS           FAIR      61  31  32 W7        30.14R                  
ANGEL FIRE       N/A     61  30  30 SW10      30.21R                  

$$
NMZ402-403-502-505>509-200500-
WESTCENTRAL MOUNTAINS/SOUTHWEST MOUNTAINS
  
CITY           SKY/WX    TMP DP  RH WIND       PRES   REMARKS
GALLUP         FAIR      68  29  23 CALM      30.10R                  
GRANTS         FAIR      69  25  19 W10       30.12R                  
SILVER CITY    FAIR      66  17  14 NW10      30.08R                  

$$
NMZ407-409-411-412-200500-
SOUTHERN DESERTS
  
CITY           SKY/WX    TMP DP  RH WIND       PRES   REMARKS
DEMING         FAIR      80  20  10 W10       29.98R                  
LAS CRUCES     FAIR      79  19  10 W13       29.98S                  
HOLLOMAN AFB   FAIR      83  23  11 S9        29.95R                  
ALAMOGORDO     FAIR      75  21  13 SE12      29.95R                  
T OR C         FAIR      84  14   7 W12       29.96R                  

$$
NMZ519>523-200500-
CENTRAL VALLEYS/CENTRAL HIGHLANDS
  
CITY           SKY/WX    TMP DP  RH WIND       PRES   REMARKS
ALBUQUERQUE    FAIR      82  32  16 N5        29.98R                  
DOUBLE EAGLE   FAIR      71  31  23 W9        30.03R                  
MORIARTY ARPT  FAIR      65  32  28 CALM      30.07R                  
CLINES CORNERS FAIR      62  30  29 W5        30.13R                  
BELEN          FAIR      74  24  15 W6        29.99R                  
SOCORRO        FAIR      81  21  11 W10       29.96R                  

$$
NMZ524>526-539-540-200500-
SOUTHCENTRAL MOUNTAINS
  
CITY           SKY/WX    TMP DP  RH WIND       PRES   REMARKS
RUIDOSO        FAIR      70  18  13 SW16      30.14R                  

$$
NMZ527>531-200500-
NORTHEAST HIGHLANDS/NORTHEAST PLAINS
  
CITY           SKY/WX    TMP DP  RH WIND       PRES   REMARKS
LAS VEGAS      FAIR      66  33  29 W7        30.09R                  
RATON          FAIR      66  36  32 W10       29.99R                  
CLAYTON        FAIR      63  50  62 S7        29.92R                  

$$
NMZ532>537-200500-
EASTCENTRAL PLAINS
  
CITY           SKY/WX    TMP DP  RH WIND       PRES   REMARKS
SANTA ROSA     FAIR      76  33  20 W5        29.91R                  
TUCUMCARI      FAIR      74  49  41 E3        29.83R                  
CANNON AFB     FAIR      73  50  45 E7        29.91R                  
CLOVIS AIRPORT FAIR      70  53  54 E8        29.90R                  

$$
NMZ028-029-538-200500-
SOUTHEAST PLAINS
  
CITY           SKY/WX    TMP DP  RH WIND       PRES   REMARKS
ROSWELL        FAIR      84  30  14 W10       29.84R                  
ARTESIA        FAIR      84  32  15 SW15      29.87R                  
CARLSBAD       FAIR      79  26  14 SW12      29.83R                  


$$